{"data":{"norad_id":63473,"epoch":"2026-05-25T04:21:58.256928Z","epoch_age_seconds":62489,"freshness":"FRESH","line1":"1 63473U 25070P   26145.18192427  .00011614  00000+0  43079-3 0  9997","line2":"2 63473  43.0012 187.9225 0001408 252.0522 108.0176 15.27589276 64678","mean_motion":15.27589276,"eccentricity":0.0001408,"inclination_deg":43.0012,"raan_deg":187.9225,"arg_perigee_deg":252.0522,"mean_anomaly_deg":108.0176,"bstar":0.00043079,"rev_number":6467,"period_min":94.266176296462,"perigee_km":482.05526940766,"apogee_km":483.98737159071,"semimajor_km":6861.1583204992,"source":"CELESTRAK","updated_at":"2026-05-25T13:38:20.007610Z"}}